Weather History for KTYR - October, 2011

Change the Weather History Date:

Thursday, October 13, 2011

  Actual Average Record
Temperature  
Mean Temperature 70 °F 68 °F  
Max Temperature 81 °F 79 °F 94 °F (1963)
Min Temperature 58 °F 57 °F 33 °F (1977)
Degree Days  
Heating Degree Days 0 1  
Month to date heating degree days 0 13  
Since 1 July heating degree days 0 18  
Cooling Degree Days 5 4  
Month to date cooling degree days 105 74  
Year to date cooling degree days 3554 2338  
Growing Degree Days 21 (Base 50)    
Moisture  
Dew Point 51 °F    
Average Humidity 57    
Maximum Humidity 87    
Minimum Humidity 26    
Precipitation  
Precipitation 0.00 in 0.16 in 3.94 in (1943)
Month to date precipitation 0.93 1.80  
Year to date precipitation 15.15 34.40  
Snow  
Snow 0.00 in - - ()
Month to date snowfall 0.0  
Since 1 July snowfall 0.0  
Since 1 September snowfall 0.0  
Snow Depth 0.00 in    
Sea Level Pressure  
Sea Level Pressure 29.90 in    
Wind  
Wind Speed 7 mph (NW)    
Max Wind Speed 17 mph    
Max Gust Speed 23 mph    
Visibility 10 miles    
Events      
T = Trace of Precipitation, MM = Missing Value Source: NWS Daily Summary

Daily Weather History Graph

Daily Weather History Graph

Search for Another Location

Airport or City:

Trip Planner

Search our weather history database for the weather conditions in past years. The results will help you decide how hot, cold, wet, or windy it might be!

Date:

Astronomy

Oct. 13, 2011 Rise Set
Actual Time 7:23 AM CDT 6:51 PM CDT
Civil Twilight 6:59 AM CDT 7:16 PM CDT
Nautical Twilight 6:30 AM CDT 7:44 PM CDT
Astronomical Twilight 6:02 AM CDT 8:13 PM CDT
Moon 7:37 PM CDT (10/13) 8:47 AM CDT (10/13)
Length of Visible Light 12h 17m
Length of Day
11h 27m
Full, 98% of the Moon is Illuminated
Oct 13
Full
Oct 19
Last Quarter
Oct 26
New
Nov 2
First Quarter
Nov 10
Full

Hourly Weather History & Observations

Time (CDT) Temp. Dew Point Humidity Pressure Visibility Wind Dir Wind Speed Gust Speed Precip Events Conditions
12:53 AM 68.0 °F 64.9 °F 90% 29.84 in 9.0 mi WSW 4.6 mph - N/A   Clear
1:53 AM 68.0 °F 64.9 °F 90% 29.85 in 10.0 mi NW 6.9 mph - N/A   Clear
2:53 AM 66.9 °F 62.1 °F 84% 29.86 in 10.0 mi NNW 6.9 mph - N/A   Clear
3:53 AM 64.9 °F 59.0 °F 81% 29.86 in 10.0 mi NNW 6.9 mph - N/A   Clear
4:53 AM 64.0 °F 55.9 °F 75% 29.87 in 10.0 mi NW 5.8 mph - N/A   Clear
5:53 AM 62.1 °F 55.0 °F 78% 29.88 in 10.0 mi NW 5.8 mph - N/A   Clear
6:53 AM 62.1 °F 53.1 °F 72% 29.90 in 10.0 mi NW 6.9 mph - N/A   Clear
7:53 AM 61.0 °F 52.0 °F 72% 29.91 in 10.0 mi NW 8.1 mph - N/A   Clear
8:53 AM 64.4 °F 51.8 °F 64% 29.94 in 10.0 mi NW 8.1 mph - N/A   Clear
9:53 AM 68.0 °F 51.1 °F 55% 29.94 in 10.0 mi North 6.9 mph - N/A   Clear
10:53 AM 73.0 °F 48.9 °F 42% 29.96 in 10.0 mi North 11.5 mph 20.7 mph N/A   Clear
11:53 AM 75.0 °F 45.0 °F 34% 29.95 in 10.0 mi NNW 12.7 mph 23.0 mph N/A   Clear
12:53 PM 75.9 °F 45.0 °F 33% 29.94 in 10.0 mi NW 13.8 mph - N/A   Clear
1:53 PM 78.1 °F 43.0 °F 29% 29.91 in 10.0 mi North 9.2 mph 18.4 mph N/A   Clear
2:53 PM 80.1 °F 42.1 °F 26% 29.88 in 10.0 mi NW 11.5 mph 18.4 mph N/A   Clear
3:53 PM 81.0 °F 43.0 °F 26% 29.87 in 10.0 mi NNW 11.5 mph 19.6 mph N/A   Clear
4:53 PM 81.0 °F 43.0 °F 26% 29.86 in 10.0 mi North 5.8 mph - N/A   Clear
5:53 PM 79.0 °F 43.0 °F 28% 29.86 in 10.0 mi NW 9.2 mph - N/A   Clear
6:53 PM 73.4 °F 44.6 °F 36% 29.89 in 10.0 mi WNW 4.6 mph - N/A   Clear
7:53 PM 71.1 °F 46.0 °F 41% 29.89 in 10.0 mi WNW 4.6 mph - N/A   Clear
8:53 PM 66.9 °F 52.0 °F 59% 29.90 in 10.0 mi WNW 4.6 mph - N/A   Clear
9:53 PM 64.9 °F 48.0 °F 54% 29.92 in 10.0 mi WNW 3.5 mph - N/A   Clear
10:53 PM 63.0 °F 48.9 °F 60% 29.93 in 10.0 mi NW 3.5 mph - N/A   Clear
11:53 PM 60.1 °F 50.0 °F 69% 29.94 in 10.0 mi Calm Calm - N/A   Clear